Weather in Rathgama

Sri Lanka     6°02′20″N   80°12′57″E
В апреле 2022 года жителям России запретили посещать сайт meteo.paraplan.net по решению Генеральной прокуратуры. Аудитория сайта уменьшилась в 10 раз. Владельцы сайта не видят смысла в поддержке погодного сервера в таких условиях. Сайт будет закрыт в октябре.
temp.,
°C
wind,
m/s
gust,
m/s
humid.,
%
clouds,
%
prec.,
mm/h
press.,
hPa
HPBL,
m
26 september, mon
mon2623:30+27w5882100 0.1 1010701
02:30+27wnw5783100 1.9 1008570
05:30+26wnw5785100 4.8 1009529
08:30+27wnw578462 2.7 1011674
11:30+28w677599 4.2 1010956
14:30+28w6775100 0.6 1008943
17:30+27w578173 2.2 1008701
20:30+26w5785100 1.8 1010557
27 september, tue
tue2723:30+26w588556 4.6 1010589
02:30+26w6985100 2.1 1008642
05:30+26w698543 5.0 1009644
08:30+27wnw68816 1.6 1011852
11:30+28w787819 2.4 1010940
14:30+28w79768 0.9 10071043
17:30+27w69795 0.9 1007959
20:30+27w698186 0.1 1010788
28 september, wed
wed2823:30+27w798298 1.0 1009735
02:30+26w698389 1.5 1008719
05:30+26w7983100 3.3 1008710
08:30+27w7980100 2.6 1010973
11:30+28w797580 3.8 10101066
14:30+28w6871100 0.9 10071095
17:30+27w6979100 1.9 1008790
20:30+27wsw71082100 0.8 1010728
29 september, thu
thu2923:30+27w71083100 1.9 1009821
02:30+26w81182100 1.9 1007839
05:30+26w81182100 4.9 1008831
08:30+27w81081100 2.4 1010984
11:30+27w81080100 4.4 1009989
14:30+27w81081100 2.8 1007949
17:30+27w71082100 6.1 1008795
20:30+27w7982100 2.2 1010752
30 september, fri
fri3023:30+27w6984100 3.3 1010777
02:30+27w71084100 1.6 1007803
05:30+26w71083100 5.3 1009722
08:30+27w6983100 4.9 1011695
11:30+27w7982100 8.3 1010854
14:30+27w7981100 3.0 1008926
17:30+26wsw7982100 6.9 1009730
20:30+26wsw71083100 3.4 1011666